ポンス-ブルックス彗星

12P/Pons-Brooks (2024)

English version
Home page
Updated on June 22, 2024

---------------------------------------------------------------------

・ プロフィール

検出日 2020年6月10日
検出光度 22.8等
検出者 M. M. Knight, C. E. Holt, Q.-Z. Ye, L. M. Feaga, M. S. P. Kelley, L. Shumar, J. Sanborn, A. Hayslip (Lowell Observatory)

・ 写真集

・ 軌道要素

Epoch 2024 Mar. 31.0 TT = JDT 2460400.5
T 2024 Apr. 21.12394 TT                                 Rudenko
q   0.7807799            (2000.0)            P               Q
n   0.01381034     Peri.  198.98909     +0.14510771     -0.32930066
a  17.2054650      Node   255.85590     +0.98566270     +0.13016964
e   0.9546202      Incl.   74.19152     +0.08609760     -0.93520957
P  71.4
>From 7480 observations 2023 June 1-2024 May 1, mean residual 0".6.

・ 星図

・ 光度変化

        H = 12.5  G = 0.15               [    ,-840]  (              〜2022年 1月 2日)
        m1 = 5.0 + 5 logΔ + 13.5 log r  [-840,-276]  (2022年 1月 2日〜2023年 7月20日)
        m1 = 9.0 + 5 logΔ +  0.0 log r  [-276,-158]  (2023年 7月20日〜2023年11月15日)
        m1 = 8.5 + 5 logΔ -  5.0 log r  [-158,-100]  (2023年11月15日〜2024年 1月12日)
        m1 = 4.6 + 5 logΔ +  9.5 log r  [-100,   0]  (2024年 1月12日〜2024年 4月21日)
        m1 = 5.0 + 5 logΔ + 13.5 log r  [   0,    ]  (2024年 4月21日〜              )

---------------------------------------------------------------------

軌道要素はM.P.E.C. 2024-J304に掲載されたものです。
星図はステラナビゲータ Ver.10 (アストロアーツ) で作成したものです。
光度グラフはComet for Windowsで作成したものです。

---------------------------------------------------------------------

Copyright(C) Seiichi Yoshida (comet@aerith.net). All rights reserved.